Helicity
44 66 77 44 17 -34 -93 -63 -23 72 48 59 86 31 46 67 24 47 3 87 110 32 19 11 0 1 0 6 8 5 11 11 -3 0 0 -2 0 7 10 12 5 5 6 4 3 3 9 12 9
41 69 33 14 -20 18 -13 38 73 -3 51 6 12 33 80 62 42 74 75 90 40 36 14 15 2 4 1 4 -6 -5 -10 -12 -9 3 2 -1 1 6 8 8 10 8 10 13 13 8 8 8 4
46 15 30 -46 -5 -8 -3 27 63 47 25 22 26 4 29 38 43 40 85 56 50 23 22 36 12 14 5 1 5 -3 -6 -15 5 10 -1 -1 2 8 7 12 3 1 10 12 11 9 8 9 7
86 85 36 -11 -78 -32 46 49 18 6 -7 13 29 41 75 73 23 104 21 47 28 32 94 50 26 18 10 3 11 1 -5 6 15 10 1 2 6 12 15 11 6 6 7 6 5 8 11 11 10
52 -3 68 -11 18 9 21 13 25 9 0 16 31 84 66 28 109 48 14 8 58 140 64 44 27 19 13 5 13 4 1 8 14 14 6 1 5 16 17 17 11 15 4 0 3 7 9 7 13
-10 -45 57 39 48 42 14 8 26 8 41 41 89 68 46 64 57 12 -2 -13 155 99 43 43 33 22 14 16 15 9 -1 4 11 4 2 3 12 26 21 20 26 36 30 6 4 13 19 16 22
52 23 28 38 110 -5 68 29 29 -9 19 16 71 69 41 36 27 -4 -4 -9 59 86 64 49 30 14 9 12 16 20 5 3 3 4 -3 8 24 19 21 22 28 48 51 37 27 29 36 33 34
234 160 88 35 127 12 20 10 31 62 -25 19 104 77 69 63 11 -11 7 6 1 142 34 21 37 23 6 8 10 8 3 3 7 1 2 14 27 29 29 34 37 43 50 52 45 37 41 44 49
-6 39 31 52 43 20 49 20 16 39 263 27 23 47 114 68 3 -13 8 18 18 57 53 66 28 34 -1 30 7 7 5 9 6 9 15 18 16 38 56 45 64 50 50 49 47 57 49 47 51
45 34 47 0 73 26 41 53 112 231 37 35 127 80 113 42 5 0 21 17 36 34 83 98 40 49 23 7 25 7 10 7 8 16 26 -6 8 16 54 62 82 66 58 54 57 59 56 56 47
69 64 3 -8 -24 -28 27 8 96 192 42 6 142 25 90 27 4 3 11 13 7 64 119 83 114 24 -32 65 13 14 -2 -6 -4 11 27 49 1 45 35 46 52 46 58 52 72 70 61 74 85
41 17 -3 19 22 24 20 1 33 106 64 37 55 85 44 12 2 8 11 27 4 121 51 68 101 25 41 34 -15 -46 11 -23 60 20 3 12 45 23 100 146 79 72 84 76 111 77 78 42 75
61 103 2 7 32 11 18 19 -3 56 23 44 69 92 33 12 7 3 3 24 21 67 17 43 75 65 74 15 -19 -11 -14 26 57 82 5 25 1 6 3 3 55 68 0 27 92 67 52 43 55
43 126 95 38 42 27 20 24 23 91 15 92 119 74 31 16 15 -12 -8 -5 35 57 130 96 58 22 19 -40 -10 4 -6 -22 139 27 -6 -28 -4 -13 -19 -14 -14 1 22 -27 23 58 54 90 86
154 91 -51 22 10 45 45 39 27 101 81 88 113 88 51 38 20 0 -11 -8 17 110 106 37 80 25 3 -21 5 17 -14 19 4 77 90 19 -8 -23 -15 -18 1 13 35 92 46 28 19 78 70
-45 11 -54 2 42 64 177 -42 30 115 93 85 105 68 71 14 8 8 -41 -63 -50 20 100 19 32 50 11 -6 -25 -7 -12 1 39 89 74 17 14 -18 -17 -16 -2 -14 11 29 10 39 57 64 110
154 94 125 44 32 94 173 179 7 79 135 116 109 82 69 43 37 84 2 6 -15 -14 106 80 0 75 25 14 -5 -27 -18 -15 24 52 102 31 7 22 -2 3 14 -38 27 17 -2 24 108 62 53
144 69 44 36 51 58 77 44 105 157 88 171 120 119 80 86 40 99 35 10 -4 40 124 97 -7 47 55 64 8 -38 -30 29 26 67 38 56 36 26 22 18 79 30 42 39 26 13 -20 -11 68
170 70 126 93 18 49 34 54 17 150 111 52 184 114 133 92 50 65 19 23 15 100 166 87 10 87 92 67 8 -10 -11 2 23 -14 41 57 -13 57 8 13 43 1 11 25 23 26 41 67 89
52 136 89 190 88 5 82 58 48 73 129 79 79 155 142 91 71 58 54 41 14 109 151 95 50 97 85 37 -37 -4 -17 21 50 11 10 68 48 31 22 11 3 -1 4 24 23 22 6 42 75
26 111 -7 11 3 17 68 23 128 44 28 91 19 93 85 165 126 95 98 50 28 160 173 152 95 83 76 -14 -5 -56 -42 -21 81 46 93 93 44 16 8 4 -1 5 27 28 42 45 41 40 19
34 18 -13 -17 7 12 126 93 87 -46 15 -24 36 35 92 112 117 140 86 38 84 172 197 170 116 98 61 -27 23 -14 -13 -19 -10 29 35 80 48 20 0 5 2 12 -1 3 39 26 26 27 26
15 18 16 4 14 23 60 154 40 20 38 -196 -54 50 51 79 94 73 84 56 29 127 214 199 140 104 64 3 -23 14 0 -25 -20 -22 25 55 103 24 12 34 17 6 7 7 -6 6 28 28 68
26 3 -11 13 21 16 16 59 90 31 332 155 -72 39 60 78 83 82 82 76 44 123 198 234 224 135 81 63 -10 0 46 -29 -16 -5 -2 52 21 66 46 11 44 22 11 3 15 0 35 45 37
22 -22 -11 15 15 21 193 104 35 83 94 156 86 70 100 84 81 108 52 60 76 76 137 205 336 219 140 94 43 23 19 18 -28 6 -6 2 22 9 108 36 72 32 10 -7 2 17 15 35 39
6 2 8 6 -3 -37 49 -7 20 -39 104 14 19 41 79 76 35 63 51 18 61 53 110 108 350 251 163 102 72 33 35 15 -8 -6 -3 8 -29 41 70 144 47 22 7 6 4 20 19 52 56
29 30 5 21 11 -19 124 102 -55 57 24 4 34 7 58 47 46 76 152 74 58 99 145 147 273 259 159 110 76 59 41 43 19 4 7 -14 -23 -43 150 94 47 37 33 47 38 19 10 17 56
22 33 40 34 42 32 6 35 165 128 47 71 30 27 58 29 24 34 121 104 27 36 57 127 207 265 159 70 66 52 48 42 19 -2 5 17 -18 -45 58 121 87 92 65 57 56 24 45 71 55
41 30 39 14 36 62 46 5 56 274 104 57 79 41 21 38 33 37 76 78 76 63 37 109 160 207 143 64 87 59 53 45 31 17 23 5 5 -27 4 71 116 125 91 85 100 72 22 86 88
38 11 9 30 25 49 49 10 47 92 41 17 171 129 93 92 34 52 62 104 128 105 77 100 174 123 163 102 40 108 73 49 42 38 32 41 26 23 43 96 117 106 91 78 98 117 86 116 111
Wind_Speed
35 35 31 25 35 19 25 26 17 24 27 27 27 23 29 27 26 22 48 41 44 48 47 47 48 49 50 32 12 21 21 23 42 44 44 45 44 44 44 44 44 44 44 43 42 41 40 41 39
38 33 26 31 27 13 33 32 29 24 29 29 31 27 31 31 30 40 41 41 42 45 47 45 47 46 45 36 42 40 35 43 43 41 44 44 45 45 45 44 45 45 43 42 42 42 42 41 41
36 33 23 35 40 37 31 36 32 28 29 28 27 28 31 28 36 35 40 42 40 40 44 42 45 44 41 46 49 47 42 43 44 43 46 47 47 45 46 45 44 44 43 42 42 42 42 42 41
31 29 34 22 38 31 32 32 33 32 28 28 27 29 27 30 30 36 46 42 39 42 33 41 41 41 39 46 49 48 49 48 46 46 49 48 47 46 46 45 45 43 43 40 42 42 41 42 42
34 38 27 30 34 38 37 34 32 30 28 27 26 30 33 27 34 40 42 42 40 33 34 36 37 39 37 45 49 49 49 49 47 48 50 49 47 45 46 47 46 43 40 40 42 42 41 40 39
28 40 14 22 32 29 32 33 34 30 28 24 27 25 24 29 38 42 40 41 36 31 30 30 35 36 34 48 49 49 48 49 49 49 49 48 47 47 46 46 45 42 40 42 41 40 38 37 36
33 21 37 28 35 24 34 32 30 30 30 26 26 25 25 31 38 38 37 36 37 31 26 27 29 28 26 48 49 48 48 49 49 49 48 47 47 47 46 45 43 41 41 40 38 37 35 34 33
25 30 24 28 40 32 25 33 34 30 26 27 26 20 23 34 39 34 33 34 34 31 30 31 28 26 31 39 48 49 48 49 48 48 48 47 46 45 44 42 40 39 38 37 36 35 33 32 31
26 28 36 33 39 33 36 31 28 32 40 25 26 17 33 34 37 39 33 33 27 34 33 31 27 25 45 33 43 50 49 50 48 47 47 46 45 44 42 40 39 37 36 35 33 32 31 30 28
18 30 24 35 34 36 35 30 34 36 40 34 28 29 40 40 42 42 31 31 32 21 29 28 31 27 38 42 37 50 50 49 47 48 48 45 43 40 42 39 37 36 34 33 31 31 30 28 26
31 28 30 36 37 33 39 32 34 42 37 39 28 34 36 44 38 34 35 29 34 30 13 29 27 35 46 29 42 47 49 49 48 48 44 44 42 41 39 37 36 34 32 31 30 29 26 25 23
31 30 31 31 37 36 36 37 28 38 32 44 45 41 43 49 45 42 47 34 41 22 28 36 36 45 42 38 47 46 47 48 43 43 45 42 40 38 35 33 32 31 30 27 27 24 21 18 16
25 32 25 28 32 31 37 36 40 40 41 48 46 45 51 50 51 50 49 42 38 33 45 28 25 28 16 29 45 46 48 48 40 35 42 39 36 32 33 28 30 28 25 23 25 22 19 17 15
30 30 34 28 28 30 30 34 34 41 43 43 46 49 50 53 53 52 52 49 44 37 23 25 22 45 45 47 48 47 46 35 32 35 40 37 30 27 30 29 27 26 24 22 21 21 20 21 18
45 32 39 32 30 28 28 32 32 42 44 41 45 50 51 52 56 57 58 52 51 32 34 45 32 39 41 49 47 47 46 36 37 25 27 28 23 26 29 25 24 22 22 19 19 17 15 17 17
10 37 37 28 34 34 37 41 34 38 40 42 43 45 48 51 49 46 58 54 61 37 36 48 42 36 41 43 47 49 48 43 22 22 22 24 25 25 24 25 23 21 19 20 21 16 15 16 16
26 31 35 36 35 33 20 31 37 37 37 39 44 45 44 44 41 37 50 48 56 46 34 35 46 36 40 38 41 49 46 47 25 24 21 26 27 23 21 21 27 20 22 20 19 19 20 17 22
9 29 40 28 32 29 23 23 32 33 33 35 38 43 45 43 44 37 44 47 50 38 27 27 51 35 35 30 34 47 43 12 11 31 21 24 22 21 20 19 20 21 22 21 22 21 29 23 22
30 44 44 36 13 22 19 21 29 28 29 31 32 40 39 41 39 36 48 48 45 30 28 33 47 24 29 27 35 44 27 17 16 17 16 15 17 16 19 19 21 21 22 23 23 23 24 22 20
32 36 35 18 30 34 48 43 42 2 24 31 32 32 38 39 38 37 41 40 48 32 27 30 37 24 28 29 40 25 30 26 23 24 22 23 18 21 20 18 19 21 22 24 25 25 24 19 29
47 37 26 39 47 18 16 50 58 62 50 29 34 31 34 37 39 38 35 37 37 30 27 29 33 31 31 37 28 32 27 16 21 24 24 19 17 19 19 17 19 24 31 29 29 28 25 19 16
56 62 57 52 48 48 17 8 8 10 50 44 34 35 30 35 34 36 42 43 37 28 28 28 30 28 30 39 23 32 30 30 31 23 21 23 26 28 26 22 28 34 37 31 31 26 22 17 16
65 58 59 57 54 49 13 11 18 19 62 66 52 30 30 30 35 40 39 40 41 32 30 29 30 31 33 43 47 37 31 43 39 45 40 38 36 40 40 38 38 38 38 33 31 26 21 19 17
68 68 68 65 55 57 34 40 56 33 22 32 47 31 30 30 32 35 39 39 36 37 38 39 38 38 40 44 55 51 44 54 50 48 45 41 42 42 40 42 39 38 36 33 29 25 22 18 16
59 75 76 68 59 50 43 41 48 24 18 20 33 31 30 32 35 35 37 39 40 40 45 44 43 42 44 46 52 60 58 56 57 48 49 44 41 42 42 42 37 35 34 32 28 23 20 18 17
66 71 75 79 73 58 66 70 50 42 22 33 28 19 29 36 41 43 44 44 48 45 48 49 48 51 52 58 61 63 64 60 56 54 49 44 45 40 38 37 36 35 32 30 29 23 20 15 17
38 58 69 87 86 83 53 19 55 50 40 19 32 24 26 31 42 43 46 54 54 51 51 55 51 57 58 62 67 65 63 63 57 53 49 49 47 44 32 36 36 36 35 28 27 23 20 15 17
53 61 69 67 84 83 77 54 20 58 61 20 24 27 16 22 33 38 41 47 54 56 57 56 52 56 56 62 64 63 57 55 57 51 50 47 50 49 27 33 32 30 25 21 17 16 15 12 12
36 42 38 55 66 83 77 56 33 28 20 31 17 29 15 13 18 25 31 39 43 47 53 54 52 49 50 57 57 58 57 54 53 54 45 49 44 45 35 28 26 22 20 16 13 14 18 8 8
72 56 69 62 59 58 78 88 34 15 22 26 17 28 30 20 10 15 16 25 33 37 40 43 46 51 49 48 54 52 51 52 49 50 46 39 46 37 29 28 21 14 11 10 9 8 11 8 8
Wind_Direction
178 160 170 221 347 278 26 41 334 20 6 11 0 4 12 354 336 29 102 91 97 103 103 103 104 100 136 187 355 150 27 181 156 143 114 113 115 119 112 108 102 102 93 86 86 81 75 75 66
188 163 227 341 348 53 27 39 18 17 38 32 36 10 13 3 40 90 93 98 98 102 106 102 105 98 90 158 102 75 64 92 142 155 132 112 106 103 101 101 106 106 96 97 96 93 90 84 84
208 247 348 47 105 59 33 37 29 27 48 25 15 31 6 43 75 84 95 101 98 101 105 100 103 97 84 97 123 103 85 89 148 150 122 119 115 115 106 110 109 108 102 101 102 91 96 94 87
229 231 278 39 75 36 25 23 48 47 42 358 35 12 2 69 78 88 104 101 99 104 91 99 99 95 85 103 127 114 122 135 150 144 131 131 126 121 122 115 103 110 110 120 110 107 100 104 104
228 289 252 192 35 54 48 56 42 37 37 48 42 46 60 53 83 98 103 103 96 89 90 93 94 94 86 105 134 124 129 137 151 144 139 126 114 122 122 116 110 116 127 131 115 112 109 109 104
5 25 193 164 25 6 25 38 37 44 20 15 37 54 48 71 97 105 104 105 98 90 89 87 90 91 85 129 130 125 117 128 141 136 131 120 115 134 126 123 122 124 121 111 110 117 111 113 109
90 29 113 318 6 302 38 44 37 36 24 53 71 61 72 90 104 106 105 102 99 86 80 82 84 78 70 132 139 127 120 123 138 135 129 129 136 127 123 124 122 121 119 119 121 123 121 116 111
76 76 105 79 33 175 138 65 53 30 26 24 56 51 92 109 112 107 104 105 108 96 94 97 87 83 90 105 134 127 130 132 141 133 132 131 128 131 132 126 132 131 123 124 130 132 130 125 121
253 130 89 79 61 108 67 59 39 15 321 346 346 36 110 112 114 116 108 106 96 105 101 100 89 83 129 95 118 151 145 138 144 143 141 146 146 138 128 137 124 127 130 129 129 129 127 131 126
164 176 160 73 98 82 66 66 32 8 274 209 9 88 112 120 123 124 111 114 110 97 97 97 102 92 117 121 102 145 147 149 151 150 147 151 154 161 131 130 125 129 128 128 127 129 127 133 132
124 149 136 67 59 87 56 81 64 43 169 172 73 101 110 128 124 121 122 116 121 116 80 106 100 107 125 97 125 136 143 149 156 159 153 154 154 135 137 133 132 128 128 129 130 126 126 133 128
141 151 119 107 80 88 78 72 103 70 108 136 118 111 124 134 134 132 138 124 133 109 107 117 110 124 117 112 135 142 146 152 124 144 168 154 147 144 134 134 133 124 117 134 135 125 132 148 141
139 205 134 108 95 109 80 92 68 71 74 113 104 115 131 138 143 144 145 135 131 123 131 107 100 234 268 103 149 147 159 159 131 112 154 130 149 111 175 90 52 79 155 131 91 124 134 128 114
298 315 257 225 122 111 107 102 110 80 99 94 105 123 132 146 150 151 153 146 138 129 116 112 103 148 156 158 190 161 156 122 107 123 134 142 118 91 114 37 66 100 95 80 131 107 103 94 102
20 349 210 217 164 99 101 119 119 91 107 102 114 126 136 144 154 160 163 149 145 129 132 147 123 135 142 160 178 186 154 122 131 87 92 107 57 68 123 91 106 106 88 115 138 107 134 97 100
308 103 127 138 124 57 19 215 177 98 108 117 122 131 137 146 141 138 161 154 170 134 135 150 144 132 142 148 161 184 177 189 86 81 83 94 100 95 89 35 73 84 96 96 90 143 136 106 88
106 117 143 71 88 71 86 136 154 111 110 120 135 141 140 141 138 132 150 145 160 148 132 135 151 135 140 138 145 178 171 180 106 105 93 103 106 98 80 83 28 127 83 92 122 155 96 94 78
219 124 36 112 87 69 98 120 100 110 120 124 138 147 151 148 150 138 150 152 155 139 128 129 160 136 134 125 135 170 164 59 346 282 85 103 102 99 93 87 109 110 89 99 92 109 66 101 95
224 346 331 255 112 79 111 164 340 111 121 136 134 153 152 155 152 147 158 157 153 138 134 140 155 129 133 128 141 168 132 98 79 117 91 91 106 41 117 89 96 109 104 89 82 107 120 120 127
223 9 15 208 241 241 328 306 297 122 117 152 150 148 156 157 155 154 155 154 161 147 139 143 151 137 137 137 155 133 141 135 131 136 136 134 108 106 114 92 86 109 145 107 136 147 153 164 97
247 352 319 282 268 244 11 262 294 265 255 157 163 151 156 158 159 159 157 160 158 153 149 148 152 152 150 156 146 156 146 116 136 140 137 118 111 117 120 93 97 116 174 138 151 162 156 152 142
259 295 296 280 268 260 90 137 318 198 247 213 162 158 150 157 160 161 164 165 162 160 154 153 155 156 159 164 147 156 152 152 156 135 123 127 130 139 145 120 144 172 211 188 168 178 156 156 134
273 281 285 277 264 253 263 44 33 46 300 234 220 155 155 150 158 165 165 166 168 161 161 158 160 161 162 168 172 161 153 176 169 186 168 162 154 161 171 164 166 177 186 194 193 165 156 185 129
286 273 271 264 249 247 282 338 307 2 137 158 206 160 150 152 154 158 164 165 166 164 161 161 162 164 165 168 179 179 168 189 185 187 178 154 173 166 174 178 160 162 177 182 170 154 156 144 151
297 274 273 262 255 296 329 332 341 172 151 173 144 142 144 146 150 151 162 164 165 167 165 163 164 166 168 170 175 184 189 182 197 209 184 180 165 171 165 167 155 158 166 170 165 145 153 153 117
283 277 273 259 263 291 308 305 293 210 183 173 96 84 128 137 147 151 155 161 162 162 165 164 164 168 170 177 180 185 190 191 189 195 196 172 191 169 166 152 157 161 154 161 167 154 172 155 95
284 284 280 269 272 265 300 347 271 227 176 82 4 24 111 124 141 144 148 162 162 162 163 166 162 169 173 179 185 185 184 187 185 184 178 191 187 198 126 138 145 155 160 147 152 157 165 124 73
287 289 287 284 272 270 274 282 331 249 227 17 352 39 87 113 132 141 143 152 161 165 165 165 161 167 171 179 180 182 178 176 181 177 177 172 186 190 100 134 137 135 132 120 106 122 140 125 88
306 302 298 294 281 272 272 279 356 344 302 325 12 331 50 98 121 132 141 147 153 158 165 164 163 162 166 174 174 177 178 175 176 181 170 177 172 178 160 138 137 132 134 122 108 127 171 111 99
285 295 283 289 285 287 274 257 312 357 2 341 345 316 312 347 115 122 133 145 148 155 157 161 162 169 169 170 175 172 172 174 173 178 177 170 179 169 160 162 152 137 127 120 119 118 150 90 64